User: anonymous   Login
Location: Unspecified
(0.0000°N, 0.0000°E)
Time: 01:03:20
(UTC+00:00)
Language:

FAISAT-2V - Orbit

View from above orbital plane
View from above orbital plane
View from above satellite
View from above satellite

Ground track
Ground track

The orbit data is extracted from the following two-line orbital elements,

1 24954U 97052B   17324.63378088 +.00000059 +00000-0 +40937-4 0  9998
2 24954 082.9217 169.9154 0040491 115.7594 302.4007 13.79959578015207
Epoch (UTC): 20 November 2017 15:12:38
Eccentricity: 0.0040491
inclination: 82.9217°
perigee height: 934 km
apogee height: 994 km
right ascension of ascending node: 169.9154°
argument of perigee: 115.7594°
revolutions per day: 13.79959578
mean anomaly at epoch: 302.4007°
orbit number at epoch: 1520

The dashed part of the orbit path shows where the satellite is in the earth's shadow,  

DLR